Back to catalog

STARLINK-37546

AliveCommunicationsVLEO
NORAD 69467·PAYLOAD·🇺🇸 United States

Launched Jun 8, 2026 from Cape Canaveral Space Force Station

Loading…

Next Passes (next 24 hours)

TLE

FreshSource: CelesTrak SupGP

Epoch: Sep 14, 2026, 21:08 UTC

1 69467C 26127AA  26257.88104167  .00015951  00000+0  47102-3 0  2571
2 69467  53.1572 192.0695 0001381 105.5641  54.4697 15.34399019    14

Track STARLINK-37546 in real time with AllMySat

Download on the App Store